Regional Weather Roundup
Issued by NWS

Home | Current Version | Previous Version | Text Only | Print | Product List | Glossary Off
Versions: 1 2 3 4 5 6 7 8 9 10 11 12 13 14 15 16 17 18 19 20 21 22 23 24 25 26 27 28 29 30 31 32 33 34 35 36 37 38 39 40 41 42 43 44 45 46 47 48 49 50

196
ASUS43 KBIS 221102
RWRND

NORTH DAKOTA REGIONAL WEATHER ROUNDUP
NATIONAL WEATHER SERVICE BISMARCK ND
600 AM CDT TUE MAY 22 2018

NOTE: "FAIR" INDICATES FEW OR NO CLOUDS BELOW 12,000 FEET WITH NO
SIGNIFICANT WEATHER AND/OR OBSTRUCTIONS TO VISIBILITY.


NDZ001>003-009>011-017-221200-
NORTHWEST NORTH DAKOTA

CITY           SKY/WX    TMP DP  RH WIND       PRES   REMARKS
WILLISTON      MOCLDY    49  44  83 CALM      29.88S
MINOT          CLOUDY    54  48  80 SE8       29.88F
MINOT AFB      CLOUDY    50  46  86 S6        29.87S
$$

NDZ018>021-031>035-040>046-221200-
SOUTHWEST NORTH DAKOTA

CITY           SKY/WX    TMP DP  RH WIND       PRES   REMARKS
BISMARCK       PTCLDY    49  49 100 E5        29.94R FOG
DICKINSON      MOCLDY    51  32  48 S10       29.91R
GARRISON         N/A     46  44  93 CALM      29.91S
HETTINGER ARPT MOCLDY    47  40  76 CALM      29.94R
$$

NDZ004>008-012>016-024-026-027-054-221200-
NORTHEAST NORTH DAKOTA

CITY           SKY/WX    TMP DP  RH WIND       PRES   REMARKS
GRAND FORKS    FAIR      50  50 100 S9        29.96R FOG
DEVILS LAKE    FAIR      55  53  93 S5        29.95S
$$

NDZ022-023-025-028>030-036>039-047>053-221200-
SOUTHEAST NORTH DAKOTA

CITY           SKY/WX    TMP DP  RH WIND       PRES   REMARKS
FARGO          FAIR      54  53  97 SE6       29.97F FOG
JAMESTOWN      CLEAR     51  51 100 SE6       29.94F FOG
$$





USA.gov is the U.S. government's official web portal to all federal, state and local government web resources and services.